TimeCDT,TemperatureF,Dew PointF,Humidity,Sea Level PressureIn,VisibilityMPH,Wind Direction,Wind SpeedMPH,Gust SpeedMPH,PrecipitationIn,Events,Conditions,WindDirDegrees,DateUTC
12:56 AM,37.9,25.0,60,30.14,10.0,WNW,10.4,18.4,N/A,,Overcast,290,2012-10-26 05:56:00
1:56 AM,37.0,25.0,62,30.15,10.0,West,10.4,-,N/A,,Mostly Cloudy,260,2012-10-26 06:56:00
2:56 AM,36.0,25.0,64,30.17,10.0,West,8.1,-,N/A,,Clear,270,2012-10-26 07:56:00
3:56 AM,33.1,25.0,72,30.18,10.0,WSW,4.6,-,N/A,,Clear,240,2012-10-26 08:56:00
4:56 AM,32.0,25.0,75,30.19,10.0,WSW,6.9,-,N/A,,Clear,250,2012-10-26 09:56:00
5:56 AM,32.0,25.0,75,30.22,-9999.0,WSW,8.1,-,N/A,,Clear,250,2012-10-26 10:56:00
6:56 AM,30.9,25.0,79,30.25,8.0,WSW,6.9,-,N/A,,Clear,240,2012-10-26 11:56:00
8:56 AM,33.1,26.1,75,30.32,10.0,SW,9.2,-,N/A,,Overcast,230,2012-10-26 13:56:00
9:56 AM,35.1,27.0,72,30.35,-9999.0,WSW,12.7,-,N/A,,Overcast,250,2012-10-26 14:56:00
11:56 AM,37.9,24.1,57,30.36,-9999.0,WNW,16.1,23.0,N/A,,Overcast,300,2012-10-26 16:56:00
1:56 PM,39.9,23.0,51,30.33,-9999.0,West,12.7,20.7,N/A,,Overcast,260,2012-10-26 18:56:00
2:56 PM,39.0,23.0,53,30.33,10.0,WNW,11.5,-,N/A,,Overcast,290,2012-10-26 19:56:00
3:56 PM,39.0,21.9,50,30.33,10.0,West,9.2,18.4,N/A,,Overcast,280,2012-10-26 20:56:00
4:56 PM,37.9,21.9,53,30.34,10.0,WNW,13.8,-,N/A,,Overcast,290,2012-10-26 21:56:00
5:56 PM,37.0,21.0,52,30.34,10.0,West,12.7,20.7,N/A,,Overcast,280,2012-10-26 22:56:00
6:56 PM,37.0,21.0,52,30.35,10.0,West,5.8,-,N/A,,Overcast,270,2012-10-26 23:56:00
7:56 PM,36.0,23.0,59,30.36,10.0,WSW,4.6,-,N/A,,Overcast,240,2012-10-27 00:56:00
8:56 PM,36.0,23.0,59,30.35,-9999.0,SW,4.6,-,N/A,,Overcast,220,2012-10-27 01:56:00
9:56 PM,36.0,23.0,59,30.35,-9999.0,SSW,5.8,-,N/A,,Overcast,210,2012-10-27 02:56:00
10:56 PM,36.0,25.0,64,30.35,-9999.0,WSW,3.5,-,N/A,,Overcast,250,2012-10-27 03:56:00
11:56 PM,36.0,26.1,67,30.35,-9999.0,West,4.6,-,N/A,,Overcast,260,2012-10-27 04:56:00